Location: Fuglau
(48.6333°N, 15.5500°E)
Time: 09:38:01
(UTC+00:00)

NOSS 3-1 (A) - Pass Details

Date: 27 February 2020
Orbit: 761 x 1452 km, 63.4° (Epoch: 26 March)

Event Time Altitude Azimuth Distance (km) Brightness Sun altitude
Rises 17:25:26 0° 230° (SW) 3,311 7.2 -8.7°
Reaches altitude 10° 17:27:44 10° 233° (SW) 2,438 6.5 -9.1°
Maximum altitude 17:33:19 67° 316° (NW) 993 3.8 -10.0°
Drops below altitude 10° 17:39:55 10° 39° (NE) 2,861 5.6 -11.1°
Sets 17:42:49 0° 43° (NE) 3,930 6.3 -11.6°
Enters shadow 17:42:59 - 43° (NE) 3,990 6.3 -11.6°
